Year,Month,Day,Hour,Minute,Value (Times are PST for temperature in C)
2017,06,24,00,00,17.40
2017,06,24,00,01,17.40
2017,06,24,00,02,17.30
2017,06,24,00,03,17.30
2017,06,24,00,04,17.30
2017,06,24,00,05,17.20
2017,06,24,00,06,17.20
2017,06,24,00,07,17.20
2017,06,24,00,08,17.10
2017,06,24,00,09,17.10
2017,06,24,00,10,17.10
2017,06,24,00,11,17.00
2017,06,24,00,12,17.00
2017,06,24,00,13,16.90
2017,06,24,00,14,16.90
2017,06,24,00,15,16.80
2017,06,24,00,16,16.80
2017,06,24,00,17,16.80
2017,06,24,00,18,16.80
2017,06,24,00,19,16.80
2017,06,24,00,20,16.70
2017,06,24,00,21,16.70
2017,06,24,00,22,16.70
2017,06,24,00,23,16.70
2017,06,24,00,24,16.70
2017,06,24,00,25,16.70
2017,06,24,00,26,16.70
2017,06,24,00,27,16.60
2017,06,24,00,28,16.60
2017,06,24,00,29,16.60
2017,06,24,00,30,16.60
2017,06,24,00,31,16.50
2017,06,24,00,32,16.50
2017,06,24,00,33,16.50
2017,06,24,00,34,16.40
2017,06,24,00,35,16.40
2017,06,24,00,36,16.40
2017,06,24,00,37,16.30
2017,06,24,00,38,16.30
2017,06,24,00,39,16.30
2017,06,24,00,40,16.30
2017,06,24,00,41,16.20
2017,06,24,00,42,16.20
2017,06,24,00,43,16.20
2017,06,24,00,44,16.20
2017,06,24,00,45,16.10
2017,06,24,00,46,16.10
2017,06,24,00,47,16.10
2017,06,24,00,48,16.10
2017,06,24,00,49,16.10
2017,06,24,00,50,16.00
2017,06,24,00,51,16.00
2017,06,24,00,52,15.90
2017,06,24,00,53,15.90
2017,06,24,00,54,15.80
2017,06,24,00,55,15.80
2017,06,24,00,56,15.80
2017,06,24,00,57,15.80
2017,06,24,00,58,15.80
2017,06,24,00,59,15.80
2017,06,24,01,00,15.80
2017,06,24,01,01,15.70
2017,06,24,01,02,15.70
2017,06,24,01,03,15.70
2017,06,24,01,04,15.60
2017,06,24,01,05,15.60
2017,06,24,01,06,15.60
2017,06,24,01,07,15.50
2017,06,24,01,08,15.50
2017,06,24,01,09,15.50
2017,06,24,01,10,15.40
2017,06,24,01,11,15.40
2017,06,24,01,12,15.40
2017,06,24,01,13,15.30
2017,06,24,01,14,15.30
2017,06,24,01,15,15.30
2017,06,24,01,16,15.30
2017,06,24,01,17,15.20
2017,06,24,01,18,15.20
2017,06,24,01,19,15.10
2017,06,24,01,20,15.10
2017,06,24,01,21,15.00
2017,06,24,01,22,15.00
2017,06,24,01,23,15.00
2017,06,24,01,24,15.00
2017,06,24,01,25,15.00
2017,06,24,01,26,14.90
2017,06,24,01,27,14.90
2017,06,24,01,28,14.90
2017,06,24,01,29,14.90
2017,06,24,01,30,14.90
2017,06,24,01,31,14.80
2017,06,24,01,32,14.80
2017,06,24,01,33,14.80
2017,06,24,01,34,14.80
2017,06,24,01,35,14.80
2017,06,24,01,36,14.70
2017,06,24,01,37,14.70
2017,06,24,01,38,14.70
2017,06,24,01,39,14.70
2017,06,24,01,40,14.60
2017,06,24,01,41,14.60
2017,06,24,01,42,14.60
2017,06,24,01,43,14.50
2017,06,24,01,44,14.50
2017,06,24,01,45,14.50
2017,06,24,01,46,14.40
2017,06,24,01,47,14.40
2017,06,24,01,48,14.40
2017,06,24,01,49,14.40
2017,06,24,01,50,14.30
2017,06,24,01,51,14.30
2017,06,24,01,52,14.30
2017,06,24,01,53,14.30
2017,06,24,01,54,14.30
2017,06,24,01,55,14.20
2017,06,24,01,56,14.20
2017,06,24,01,57,14.20
2017,06,24,01,58,14.20
2017,06,24,01,59,14.20
2017,06,24,02,00,14.20
2017,06,24,02,01,14.20
2017,06,24,02,02,14.10
2017,06,24,02,03,14.10
2017,06,24,02,04,14.10
2017,06,24,02,05,14.10
2017,06,24,02,06,14.00
2017,06,24,02,07,14.00
2017,06,24,02,08,14.00
2017,06,24,02,09,13.90
2017,06,24,02,10,13.90
2017,06,24,02,11,13.90
2017,06,24,02,12,13.90
2017,06,24,02,13,13.90
2017,06,24,02,14,13.90
2017,06,24,02,15,13.80
2017,06,24,02,16,13.80
2017,06,24,02,17,13.80
2017,06,24,02,18,13.80
2017,06,24,02,19,13.80
2017,06,24,02,20,13.80
2017,06,24,02,21,13.80
2017,06,24,02,22,13.70
2017,06,24,02,23,13.70
2017,06,24,02,24,13.70
2017,06,24,02,25,13.60
2017,06,24,02,26,13.60
2017,06,24,02,27,13.60
2017,06,24,02,28,13.60
2017,06,24,02,29,13.50
2017,06,24,02,30,13.50
2017,06,24,02,31,13.50
2017,06,24,02,32,13.50
2017,06,24,02,33,13.50
2017,06,24,02,34,13.50
2017,06,24,02,35,13.50
2017,06,24,02,36,13.40
2017,06,24,02,37,13.40
2017,06,24,02,38,13.40
2017,06,24,02,39,13.40
2017,06,24,02,40,13.40
2017,06,24,02,41,13.40
2017,06,24,02,42,13.30
2017,06,24,02,43,13.30
2017,06,24,02,44,13.30
2017,06,24,02,45,13.30
2017,06,24,02,46,13.30
2017,06,24,02,47,13.30
2017,06,24,02,48,13.30
2017,06,24,02,49,13.30
2017,06,24,02,50,13.20
2017,06,24,02,51,13.20
2017,06,24,02,52,13.20
2017,06,24,02,53,13.20
2017,06,24,02,54,13.20
2017,06,24,02,55,13.20
2017,06,24,02,56,13.10
2017,06,24,02,57,13.00
2017,06,24,02,58,13.00
2017,06,24,02,59,13.00
2017,06,24,03,00,13.00
2017,06,24,03,01,12.90
2017,06,24,03,02,12.90
2017,06,24,03,03,12.90
2017,06,24,03,04,12.80
2017,06,24,03,05,12.90
2017,06,24,03,06,12.90
2017,06,24,03,07,12.90
2017,06,24,03,08,12.90
2017,06,24,03,09,12.90
2017,06,24,03,10,12.90
2017,06,24,03,11,12.80
2017,06,24,03,12,12.80
2017,06,24,03,13,12.80
2017,06,24,03,14,12.80
2017,06,24,03,15,12.80
2017,06,24,03,16,12.80
2017,06,24,03,17,12.80
2017,06,24,03,18,12.70
2017,06,24,03,19,12.70
2017,06,24,03,20,12.70
2017,06,24,03,21,12.70
2017,06,24,03,22,12.70
2017,06,24,03,23,12.70
2017,06,24,03,24,12.60
2017,06,24,03,25,12.60
2017,06,24,03,26,12.60
2017,06,24,03,27,12.60
2017,06,24,03,28,12.60
2017,06,24,03,29,12.50
2017,06,24,03,30,12.50
2017,06,24,03,31,12.50
2017,06,24,03,32,12.40
2017,06,24,03,33,12.40
2017,06,24,03,34,12.40
2017,06,24,03,35,12.40
2017,06,24,03,36,12.30
2017,06,24,03,37,12.30
2017,06,24,03,38,12.30
2017,06,24,03,39,12.30
2017,06,24,03,40,12.30
2017,06,24,03,41,12.30
2017,06,24,03,42,12.20
2017,06,24,03,43,12.20
2017,06,24,03,44,12.20
2017,06,24,03,45,12.20
2017,06,24,03,46,12.20
2017,06,24,03,47,12.20
2017,06,24,03,48,12.20
2017,06,24,03,49,12.20
2017,06,24,03,50,12.10
2017,06,24,03,51,12.10
2017,06,24,03,52,12.10
2017,06,24,03,53,12.10
2017,06,24,03,54,12.00
2017,06,24,03,55,12.10
2017,06,24,03,56,12.10
2017,06,24,03,57,12.10
2017,06,24,03,58,12.10
2017,06,24,03,59,12.10
2017,06,24,04,00,12.00
2017,06,24,04,01,12.00
2017,06,24,04,02,12.00
2017,06,24,04,03,12.00
2017,06,24,04,04,12.00
2017,06,24,04,05,12.00
2017,06,24,04,06,11.90
2017,06,24,04,07,11.90
2017,06,24,04,08,11.90
2017,06,24,04,09,11.90
2017,06,24,04,10,11.90
2017,06,24,04,11,11.90
2017,06,24,04,12,11.90
2017,06,24,04,13,11.90
2017,06,24,04,14,11.90
2017,06,24,04,15,11.90
2017,06,24,04,16,11.90
2017,06,24,04,17,11.90
2017,06,24,04,18,11.90
2017,06,24,04,19,11.90
2017,06,24,04,20,11.90
2017,06,24,04,21,11.90
2017,06,24,04,22,11.90
2017,06,24,04,23,11.90
2017,06,24,04,24,11.90
2017,06,24,04,25,11.90
2017,06,24,04,26,11.80
2017,06,24,04,27,11.80
2017,06,24,04,28,11.80
2017,06,24,04,29,11.80
2017,06,24,04,30,11.80
2017,06,24,04,31,11.80
2017,06,24,04,32,11.80
2017,06,24,04,33,11.80
2017,06,24,04,34,11.80
2017,06,24,04,35,11.80
2017,06,24,04,36,11.70
2017,06,24,04,37,11.70
2017,06,24,04,38,11.70
2017,06,24,04,39,11.70
2017,06,24,04,40,11.70
2017,06,24,04,41,11.70
2017,06,24,04,42,11.70
2017,06,24,04,43,11.70
2017,06,24,04,44,11.60
2017,06,24,04,45,11.60
2017,06,24,04,46,11.60
2017,06,24,04,47,11.60
2017,06,24,04,48,11.60
2017,06,24,04,49,11.60
2017,06,24,04,50,11.60
2017,06,24,04,51,11.60
2017,06,24,04,52,11.60
2017,06,24,04,53,11.50
2017,06,24,04,54,11.50
2017,06,24,04,55,11.50
2017,06,24,04,56,11.50
2017,06,24,04,57,11.50
2017,06,24,04,58,11.50
2017,06,24,04,59,11.50
2017,06,24,05,00,11.40
2017,06,24,05,01,11.40
2017,06,24,05,02,11.40
2017,06,24,05,03,11.30
2017,06,24,05,04,11.30
2017,06,24,05,05,11.30
2017,06,24,05,06,11.20
2017,06,24,05,07,11.20
2017,06,24,05,08,11.20
2017,06,24,05,09,11.20
2017,06,24,05,10,11.10
2017,06,24,05,11,11.10
2017,06,24,05,12,11.10
2017,06,24,05,13,11.00
2017,06,24,05,14,11.00
2017,06,24,05,15,11.00
2017,06,24,05,16,11.00
2017,06,24,05,17,11.00
2017,06,24,05,18,11.00
2017,06,24,05,19,11.00
2017,06,24,05,20,10.90
2017,06,24,05,21,10.90
2017,06,24,05,22,10.90
2017,06,24,05,23,10.90
2017,06,24,05,24,10.90
2017,06,24,05,25,10.90
2017,06,24,05,26,10.90
2017,06,24,05,27,10.90
2017,06,24,05,28,10.90
2017,06,24,05,29,10.80
2017,06,24,05,30,10.80
2017,06,24,05,31,10.80
2017,06,24,05,32,10.80
2017,06,24,05,33,10.90
2017,06,24,05,34,10.80
2017,06,24,05,35,10.80
2017,06,24,05,36,10.80
2017,06,24,05,37,10.80
2017,06,24,05,38,10.80
2017,06,24,05,39,10.80
2017,06,24,05,40,10.80
2017,06,24,05,41,10.90
2017,06,24,05,42,10.90
2017,06,24,05,43,10.90
2017,06,24,05,44,10.90
2017,06,24,05,45,10.90
2017,06,24,05,46,10.90
2017,06,24,05,47,10.90
2017,06,24,05,48,10.90
2017,06,24,05,49,11.00
2017,06,24,05,50,11.00
2017,06,24,05,51,11.00
2017,06,24,05,52,11.00
2017,06,24,05,53,11.00
2017,06,24,05,54,11.00
2017,06,24,05,55,11.00
2017,06,24,05,56,11.10
2017,06,24,05,57,11.00
2017,06,24,05,58,11.00
2017,06,24,05,59,11.00
2017,06,24,06,00,11.00
2017,06,24,06,01,11.00
2017,06,24,06,02,11.00
2017,06,24,06,03,11.00
2017,06,24,06,04,11.00
2017,06,24,06,05,11.00
2017,06,24,06,06,11.00
2017,06,24,06,07,11.00
2017,06,24,06,08,11.00
2017,06,24,06,09,11.00
2017,06,24,06,10,11.00
2017,06,24,06,11,11.00
2017,06,24,06,12,11.10
2017,06,24,06,13,11.10
2017,06,24,06,14,11.10
2017,06,24,06,15,11.20
2017,06,24,06,16,11.20
2017,06,24,06,17,11.20
2017,06,24,06,18,11.30
2017,06,24,06,19,11.40
2017,06,24,06,20,11.50
2017,06,24,06,21,11.60
2017,06,24,06,22,11.60
2017,06,24,06,23,11.70
2017,06,24,06,24,11.80
2017,06,24,06,25,11.80
2017,06,24,06,26,11.90
2017,06,24,06,27,11.90
2017,06,24,06,28,11.90
2017,06,24,06,29,11.90
2017,06,24,06,30,11.90
2017,06,24,06,31,11.90
2017,06,24,06,32,11.90
2017,06,24,06,33,11.90
2017,06,24,06,34,11.90
2017,06,24,06,35,11.90
2017,06,24,06,36,12.00
2017,06,24,06,37,12.00
2017,06,24,06,38,12.10
2017,06,24,06,39,12.10
2017,06,24,06,40,12.10
2017,06,24,06,41,12.20
2017,06,24,06,42,12.30
2017,06,24,06,43,12.30
2017,06,24,06,44,12.40
2017,06,24,06,45,12.40
2017,06,24,06,46,12.50
2017,06,24,06,47,12.50
2017,06,24,06,48,12.60
2017,06,24,06,49,12.60
2017,06,24,06,50,12.60
2017,06,24,06,51,12.60
2017,06,24,06,52,12.70
2017,06,24,06,53,12.70
2017,06,24,06,54,12.70
2017,06,24,06,55,12.70
2017,06,24,06,56,12.80
2017,06,24,06,57,12.80
2017,06,24,06,58,12.90
2017,06,24,06,59,12.90
2017,06,24,07,00,12.90
2017,06,24,07,01,12.90
2017,06,24,07,02,13.00
2017,06,24,07,03,13.10
2017,06,24,07,04,13.10
2017,06,24,07,05,13.20
2017,06,24,07,06,13.20
2017,06,24,07,07,13.30
2017,06,24,07,08,13.40
2017,06,24,07,09,13.40
2017,06,24,07,10,13.50
2017,06,24,07,11,13.60
2017,06,24,07,12,13.60
2017,06,24,07,13,13.70
2017,06,24,07,14,13.70
2017,06,24,07,15,13.70
2017,06,24,07,16,13.80
2017,06,24,07,17,13.80
2017,06,24,07,18,13.90
2017,06,24,07,19,13.90
2017,06,24,07,20,13.90
2017,06,24,07,21,13.90
2017,06,24,07,22,14.00
2017,06,24,07,23,14.00
2017,06,24,07,24,14.10
2017,06,24,07,25,14.10
2017,06,24,07,26,14.10
2017,06,24,07,27,14.20
2017,06,24,07,28,14.20
2017,06,24,07,29,14.30
2017,06,24,07,30,14.30
2017,06,24,07,31,14.40
2017,06,24,07,32,14.40
2017,06,24,07,33,14.50
2017,06,24,07,34,14.50
2017,06,24,07,35,14.60
2017,06,24,07,36,14.70
2017,06,24,07,37,14.80
2017,06,24,07,38,14.90
2017,06,24,07,39,15.00
2017,06,24,07,40,15.10
2017,06,24,07,41,15.30
2017,06,24,07,42,15.30
2017,06,24,07,43,15.30
2017,06,24,07,44,15.30
2017,06,24,07,45,15.30
2017,06,24,07,46,15.30
2017,06,24,07,47,15.80
2017,06,24,07,48,15.90
2017,06,24,07,49,15.90
2017,06,24,07,50,16.00
2017,06,24,07,51,16.00
2017,06,24,07,52,16.10
2017,06,24,07,53,16.20
2017,06,24,07,54,16.30
2017,06,24,07,55,16.30
2017,06,24,07,56,16.40
2017,06,24,07,57,16.50
2017,06,24,07,58,16.50
2017,06,24,07,59,16.60
2017,06,24,08,00,16.60
2017,06,24,08,01,16.60
2017,06,24,08,02,16.70
2017,06,24,08,03,16.70
2017,06,24,08,04,16.70
2017,06,24,08,05,16.80
2017,06,24,08,06,16.80
2017,06,24,08,07,16.80
2017,06,24,08,08,16.90
2017,06,24,08,09,16.90
2017,06,24,08,10,17.00
2017,06,24,08,11,17.00
2017,06,24,08,12,17.10
2017,06,24,08,13,17.20
2017,06,24,08,14,17.30
2017,06,24,08,15,17.30
2017,06,24,08,16,17.40
2017,06,24,08,17,17.40
2017,06,24,08,18,17.40
2017,06,24,08,19,17.50
2017,06,24,08,20,17.50
2017,06,24,08,21,17.60
2017,06,24,08,22,17.70
2017,06,24,08,23,17.80
2017,06,24,08,24,17.90
2017,06,24,08,25,18.00
2017,06,24,08,26,18.20
2017,06,24,08,27,18.30
2017,06,24,08,28,18.40
2017,06,24,08,29,18.50
2017,06,24,08,30,18.60
2017,06,24,08,31,18.70
2017,06,24,08,32,18.70
2017,06,24,08,33,18.70
2017,06,24,08,34,18.80
2017,06,24,08,35,18.80
2017,06,24,08,36,18.90
2017,06,24,08,37,19.00
2017,06,24,08,38,19.10
2017,06,24,08,39,19.10
2017,06,24,08,40,19.20
2017,06,24,08,41,19.30
2017,06,24,08,42,19.40
2017,06,24,08,43,19.50
2017,06,24,08,44,19.60
2017,06,24,08,45,19.70
2017,06,24,08,46,19.70
2017,06,24,08,47,19.60
2017,06,24,08,48,19.60
2017,06,24,08,49,19.60
2017,06,24,08,50,19.50
2017,06,24,08,51,19.50
2017,06,24,08,52,19.40
2017,06,24,08,53,19.40
2017,06,24,08,54,19.50
2017,06,24,08,55,19.50
2017,06,24,08,56,19.60
2017,06,24,08,57,19.60
2017,06,24,08,58,19.60
2017,06,24,08,59,19.70
2017,06,24,09,00,19.70
2017,06,24,09,01,19.70
2017,06,24,09,02,19.80
2017,06,24,09,03,19.80
2017,06,24,09,04,19.90
2017,06,24,09,05,19.90
2017,06,24,09,06,20.00
2017,06,24,09,07,20.00
2017,06,24,09,08,20.00
2017,06,24,09,09,20.10
2017,06,24,09,10,20.10
2017,06,24,09,11,20.20
2017,06,24,09,12,20.20
2017,06,24,09,13,20.20
2017,06,24,09,14,20.30
2017,06,24,09,15,20.30
2017,06,24,09,16,20.40
2017,06,24,09,17,20.40
2017,06,24,09,18,20.50
2017,06,24,09,19,20.50
2017,06,24,09,20,20.50
2017,06,24,09,21,20.60
2017,06,24,09,22,20.60
2017,06,24,09,23,20.70
2017,06,24,09,24,20.70
2017,06,24,09,25,20.80
2017,06,24,09,26,20.80
2017,06,24,09,27,20.80
2017,06,24,09,28,20.80
2017,06,24,09,29,20.90
2017,06,24,09,30,20.90
2017,06,24,09,31,21.00
2017,06,24,09,32,21.10
2017,06,24,09,33,21.10
2017,06,24,09,34,21.20
2017,06,24,09,35,21.20
2017,06,24,09,36,21.30
2017,06,24,09,37,21.30
2017,06,24,09,38,21.40
2017,06,24,09,39,21.50
2017,06,24,09,40,21.60
2017,06,24,09,41,21.60
2017,06,24,09,42,21.60
2017,06,24,09,43,21.50
2017,06,24,09,44,21.60
2017,06,24,09,45,21.60
2017,06,24,09,46,21.60
2017,06,24,09,47,21.70
2017,06,24,09,48,21.70
2017,06,24,09,49,21.70
2017,06,24,09,50,21.80
2017,06,24,09,51,21.90
2017,06,24,09,52,22.00
2017,06,24,09,53,22.10
2017,06,24,09,54,22.10
2017,06,24,09,55,22.20
2017,06,24,09,56,22.30
2017,06,24,09,57,22.30
2017,06,24,09,58,22.30
2017,06,24,09,59,22.40
2017,06,24,10,00,22.40
2017,06,24,10,01,22.40
2017,06,24,10,02,22.40
2017,06,24,10,03,22.50
2017,06,24,10,04,22.50
2017,06,24,10,05,22.60
2017,06,24,10,06,22.60
2017,06,24,10,07,22.70
2017,06,24,10,08,22.70
2017,06,24,10,09,22.80
2017,06,24,10,10,22.90
2017,06,24,10,11,23.00
2017,06,24,10,12,23.10
2017,06,24,10,13,23.20
2017,06,24,10,14,23.30
2017,06,24,10,15,23.40
2017,06,24,10,16,23.40
2017,06,24,10,17,23.40
2017,06,24,10,18,23.40
2017,06,24,10,19,23.40
2017,06,24,10,20,23.50
2017,06,24,10,21,23.50
2017,06,24,10,22,23.50
2017,06,24,10,23,23.60
2017,06,24,10,24,23.70
2017,06,24,10,25,23.80
2017,06,24,10,26,23.80
2017,06,24,10,27,23.90
2017,06,24,10,28,24.00
2017,06,24,10,29,24.10
2017,06,24,10,30,24.20
2017,06,24,10,31,24.30
2017,06,24,10,32,24.40
2017,06,24,10,33,24.50
2017,06,24,10,34,24.60
2017,06,24,10,35,24.60
2017,06,24,10,36,24.60
2017,06,24,10,37,24.60
2017,06,24,10,38,24.60
2017,06,24,10,39,24.60
2017,06,24,10,40,24.60
2017,06,24,10,41,24.60
2017,06,24,10,42,24.70
2017,06,24,10,43,24.70
2017,06,24,10,44,24.80
2017,06,24,10,45,24.80
2017,06,24,10,46,24.80
2017,06,24,10,47,24.80
2017,06,24,10,48,24.80
2017,06,24,10,49,24.80
2017,06,24,10,50,24.90
2017,06,24,10,51,25.00
2017,06,24,10,52,25.10
2017,06,24,10,53,25.20
2017,06,24,10,54,25.20
2017,06,24,10,55,25.30
2017,06,24,10,56,25.40
2017,06,24,10,57,25.50
2017,06,24,10,58,25.50
2017,06,24,10,59,25.60
2017,06,24,11,00,25.70
2017,06,24,11,01,25.80
2017,06,24,11,02,25.90
2017,06,24,11,03,26.00
2017,06,24,11,04,26.00
2017,06,24,11,05,26.10
2017,06,24,11,06,26.10
2017,06,24,11,07,26.10
2017,06,24,11,08,26.40
2017,06,24,11,09,26.40
2017,06,24,11,10,26.40
2017,06,24,11,11,26.40
2017,06,24,11,12,26.50
2017,06,24,11,13,26.50
2017,06,24,11,14,26.60
2017,06,24,11,15,26.60
2017,06,24,11,16,26.60
2017,06,24,11,17,26.70
2017,06,24,11,18,26.70
2017,06,24,11,19,26.80
2017,06,24,11,20,26.80
2017,06,24,11,21,26.80
2017,06,24,11,22,26.70
2017,06,24,11,23,26.60
2017,06,24,11,24,26.60
2017,06,24,11,25,26.70
2017,06,24,11,26,26.70
2017,06,24,11,27,26.70
2017,06,24,11,28,26.70
2017,06,24,11,29,26.70
2017,06,24,11,30,26.70
2017,06,24,11,31,26.80
2017,06,24,11,32,26.90
2017,06,24,11,33,27.00
2017,06,24,11,34,27.00
2017,06,24,11,35,27.00
2017,06,24,11,36,27.00
2017,06,24,11,37,27.00
2017,06,24,11,38,27.00
2017,06,24,11,39,27.10
2017,06,24,11,40,27.10
2017,06,24,11,41,27.10
2017,06,24,11,42,27.10
2017,06,24,11,43,27.20
2017,06,24,11,44,27.20
2017,06,24,11,45,27.30
2017,06,24,11,46,27.40
2017,06,24,11,47,27.40
2017,06,24,11,48,27.40
2017,06,24,11,49,27.50
2017,06,24,11,50,27.50
2017,06,24,11,51,27.60
2017,06,24,11,52,27.60
2017,06,24,11,53,27.70
2017,06,24,11,54,27.70
2017,06,24,11,55,27.70
2017,06,24,11,56,27.70
2017,06,24,11,57,27.70
2017,06,24,11,58,27.80
2017,06,24,11,59,27.80
2017,06,24,12,00,27.90
2017,06,24,12,01,27.90
2017,06,24,12,02,27.90
2017,06,24,12,03,27.90
2017,06,24,12,04,28.00
2017,06,24,12,05,28.10
2017,06,24,12,06,28.10
2017,06,24,12,07,28.10
2017,06,24,12,08,28.10
2017,06,24,12,09,28.10
2017,06,24,12,10,28.10
2017,06,24,12,11,28.10
2017,06,24,12,12,28.20
2017,06,24,12,13,28.30
2017,06,24,12,14,28.40
2017,06,24,12,15,28.50
2017,06,24,12,16,28.60
2017,06,24,12,17,28.60
2017,06,24,12,18,28.60
2017,06,24,12,19,28.70
2017,06,24,12,20,28.80
2017,06,24,12,21,28.90
2017,06,24,12,22,29.00
2017,06,24,12,23,29.10
2017,06,24,12,24,29.30
2017,06,24,12,25,29.30
2017,06,24,12,26,29.40
2017,06,24,12,27,29.50
2017,06,24,12,28,29.50
2017,06,24,12,29,29.60
2017,06,24,12,30,29.70
2017,06,24,12,31,29.70
2017,06,24,12,32,29.70
2017,06,24,12,33,29.70
2017,06,24,12,34,29.70
2017,06,24,12,35,29.70
2017,06,24,12,36,29.60
2017,06,24,12,37,29.60
2017,06,24,12,38,29.50
2017,06,24,12,39,29.50
2017,06,24,12,40,29.50
2017,06,24,12,41,29.60
2017,06,24,12,42,29.60
2017,06,24,12,43,29.60
2017,06,24,12,44,29.50
2017,06,24,12,45,29.50
2017,06,24,12,46,29.40
2017,06,24,12,47,29.30
2017,06,24,12,48,29.30
2017,06,24,12,49,29.30
2017,06,24,12,50,29.30
2017,06,24,12,51,29.30
2017,06,24,12,52,29.30
2017,06,24,12,53,29.30
2017,06,24,12,54,29.30
2017,06,24,12,55,29.30
2017,06,24,12,56,29.40
2017,06,24,12,57,29.40
2017,06,24,12,58,29.40
2017,06,24,12,59,29.40
2017,06,24,13,00,29.40
2017,06,24,13,01,29.50
2017,06,24,13,02,29.50
2017,06,24,13,03,29.50
2017,06,24,13,04,29.60
2017,06,24,13,05,29.60
2017,06,24,13,06,29.50
2017,06,24,13,07,29.40
2017,06,24,13,08,29.50
2017,06,24,13,09,29.50
2017,06,24,13,10,29.50
2017,06,24,13,11,29.50
2017,06,24,13,12,29.60
2017,06,24,13,13,29.60
2017,06,24,13,14,29.60
2017,06,24,13,15,29.60
2017,06,24,13,16,29.60
2017,06,24,13,17,29.60
2017,06,24,13,18,29.60
2017,06,24,13,19,29.60
2017,06,24,13,20,29.60
2017,06,24,13,21,29.60
2017,06,24,13,22,29.60
2017,06,24,13,23,29.70
2017,06,24,13,24,29.70
2017,06,24,13,25,29.80
2017,06,24,13,26,29.80
2017,06,24,13,27,29.80
2017,06,24,13,28,29.80
2017,06,24,13,29,29.90
2017,06,24,13,30,29.90
2017,06,24,13,31,29.90
2017,06,24,13,32,29.90
2017,06,24,13,33,30.00
2017,06,24,13,34,30.10
2017,06,24,13,35,30.10
2017,06,24,13,36,30.10
2017,06,24,13,37,30.10
2017,06,24,13,38,30.10
2017,06,24,13,39,30.10
2017,06,24,13,40,30.10
2017,06,24,13,41,30.20
2017,06,24,13,42,30.20
2017,06,24,13,43,30.20
2017,06,24,13,44,30.10
2017,06,24,13,45,30.10
2017,06,24,13,46,30.10
2017,06,24,13,47,30.10
2017,06,24,13,48,30.10
2017,06,24,13,49,30.20
2017,06,24,13,50,30.20
2017,06,24,13,51,30.10
2017,06,24,13,52,30.10
2017,06,24,13,53,30.10
2017,06,24,13,54,30.10
2017,06,24,13,55,30.10
2017,06,24,13,56,30.10
2017,06,24,13,57,30.10
2017,06,24,13,58,30.20
2017,06,24,13,59,30.30
2017,06,24,14,00,30.40
2017,06,24,14,01,30.40
2017,06,24,14,02,30.40
2017,06,24,14,03,30.40
2017,06,24,14,04,30.50
2017,06,24,14,05,30.50
2017,06,24,14,06,30.50
2017,06,24,14,07,30.60
2017,06,24,14,08,30.50
2017,06,24,14,09,30.50
2017,06,24,14,10,30.40
2017,06,24,14,11,30.40
2017,06,24,14,12,30.40
2017,06,24,14,13,30.40
2017,06,24,14,14,30.40
2017,06,24,14,15,30.40
2017,06,24,14,16,30.40
2017,06,24,14,17,30.50
2017,06,24,14,18,30.50
2017,06,24,14,19,30.40
2017,06,24,14,20,30.40
2017,06,24,14,21,30.50
2017,06,24,14,22,30.50
2017,06,24,14,23,30.50
2017,06,24,14,24,30.50
2017,06,24,14,25,30.40
2017,06,24,14,26,30.40
2017,06,24,14,27,30.40
2017,06,24,14,28,30.50
2017,06,24,14,29,30.60
2017,06,24,14,30,30.60
2017,06,24,14,31,30.70
2017,06,24,14,32,30.70
2017,06,24,14,33,30.80
2017,06,24,14,34,30.90
2017,06,24,14,35,30.90
2017,06,24,14,36,31.00
2017,06,24,14,37,31.00
2017,06,24,14,38,31.00
2017,06,24,14,39,31.00
2017,06,24,14,40,31.00
2017,06,24,14,41,31.10
2017,06,24,14,42,31.20
2017,06,24,14,43,31.30
2017,06,24,14,44,31.30
2017,06,24,14,45,31.30
2017,06,24,14,46,31.30
2017,06,24,14,47,31.30
2017,06,24,14,48,31.30
2017,06,24,14,49,31.30
2017,06,24,14,50,31.30
2017,06,24,14,51,31.30
2017,06,24,14,52,31.20
2017,06,24,14,53,31.20
2017,06,24,14,54,31.20
2017,06,24,14,55,31.10
2017,06,24,14,56,31.20
2017,06,24,14,57,31.20
2017,06,24,14,58,31.20
2017,06,24,14,59,31.20
2017,06,24,15,00,31.20
2017,06,24,15,01,31.30
2017,06,24,15,02,31.30
2017,06,24,15,03,31.30
2017,06,24,15,04,31.30
2017,06,24,15,05,31.20
2017,06,24,15,06,31.20
2017,06,24,15,07,31.20
2017,06,24,15,08,31.30
2017,06,24,15,09,31.40
2017,06,24,15,10,31.50
2017,06,24,15,11,31.50
2017,06,24,15,12,31.60
2017,06,24,15,13,31.60
2017,06,24,15,14,31.60
2017,06,24,15,15,31.60
2017,06,24,15,16,31.50
2017,06,24,15,17,31.40
2017,06,24,15,18,31.30
2017,06,24,15,19,31.30
2017,06,24,15,20,31.30
2017,06,24,15,21,31.20
2017,06,24,15,22,31.20
2017,06,24,15,23,31.20
2017,06,24,15,24,31.30
2017,06,24,15,25,31.30
2017,06,24,15,26,31.40
2017,06,24,15,27,31.50
2017,06,24,15,28,31.60
2017,06,24,15,29,31.70
2017,06,24,15,30,31.70
2017,06,24,15,31,31.80
2017,06,24,15,32,31.80
2017,06,24,15,33,31.80
2017,06,24,15,34,31.90
2017,06,24,15,35,31.90
2017,06,24,15,36,31.90
2017,06,24,15,37,31.80
2017,06,24,15,38,31.80
2017,06,24,15,39,31.80
2017,06,24,15,40,31.70
2017,06,24,15,41,31.60
2017,06,24,15,42,31.60
2017,06,24,15,43,31.60
2017,06,24,15,44,31.80
2017,06,24,15,45,31.80
2017,06,24,15,46,31.90
2017,06,24,15,47,31.90
2017,06,24,15,48,31.90
2017,06,24,15,49,31.90
2017,06,24,15,50,31.90
2017,06,24,15,51,31.80
2017,06,24,15,52,31.80
2017,06,24,15,53,31.80
2017,06,24,15,54,31.80
2017,06,24,15,55,31.80
2017,06,24,15,56,31.80
2017,06,24,15,57,31.90
2017,06,24,15,58,31.90
2017,06,24,15,59,31.90
2017,06,24,16,00,31.90
2017,06,24,16,01,32.00
2017,06,24,16,02,32.00
2017,06,24,16,03,32.00
2017,06,24,16,04,32.00
2017,06,24,16,05,31.90
2017,06,24,16,06,31.90
2017,06,24,16,07,31.80
2017,06,24,16,08,31.80
2017,06,24,16,09,31.80
2017,06,24,16,10,31.80
2017,06,24,16,11,31.80
2017,06,24,16,12,31.80
2017,06,24,16,13,31.80
2017,06,24,16,14,31.80
2017,06,24,16,15,31.80
2017,06,24,16,16,31.80
2017,06,24,16,17,31.80
2017,06,24,16,18,31.80
2017,06,24,16,19,31.80
2017,06,24,16,20,31.80
2017,06,24,16,21,31.80
2017,06,24,16,22,31.90
2017,06,24,16,23,31.90
2017,06,24,16,24,32.00
2017,06,24,16,25,32.00
2017,06,24,16,26,32.00
2017,06,24,16,27,32.10
2017,06,24,16,28,32.10
2017,06,24,16,29,32.10
2017,06,24,16,30,32.00
2017,06,24,16,31,32.00
2017,06,24,16,32,31.90
2017,06,24,16,33,31.90
2017,06,24,16,34,31.90
2017,06,24,16,35,31.90
2017,06,24,16,36,31.90
2017,06,24,16,37,31.90
2017,06,24,16,38,32.00
2017,06,24,16,39,32.00
2017,06,24,16,40,32.00
2017,06,24,16,41,32.00
2017,06,24,16,42,32.00
2017,06,24,16,43,31.90
2017,06,24,16,44,31.90
2017,06,24,16,45,31.90
2017,06,24,16,46,31.90
2017,06,24,16,47,31.90
2017,06,24,16,48,31.90
2017,06,24,16,49,31.90
2017,06,24,16,50,32.00
2017,06,24,16,51,32.00
2017,06,24,16,52,32.00
2017,06,24,16,53,32.10
2017,06,24,16,54,32.10
2017,06,24,16,55,32.10
2017,06,24,16,56,32.00
2017,06,24,16,57,32.00
2017,06,24,16,58,32.00
2017,06,24,16,59,32.00
2017,06,24,17,00,32.00
2017,06,24,17,01,32.00
2017,06,24,17,02,32.00
2017,06,24,17,03,32.00
2017,06,24,17,04,32.10
2017,06,24,17,05,32.10
2017,06,24,17,06,32.10
2017,06,24,17,07,32.10
2017,06,24,17,08,32.10
2017,06,24,17,09,32.10
2017,06,24,17,10,32.10
2017,06,24,17,11,32.10
2017,06,24,17,12,32.10
2017,06,24,17,13,32.10
2017,06,24,17,14,32.20
2017,06,24,17,15,32.20
2017,06,24,17,16,32.20
2017,06,24,17,17,32.20
2017,06,24,17,18,32.20
2017,06,24,17,19,32.20